Flag for Colombia Weather past 2 weeks in Villavicencio, Colombia

Now
57 °F

Scattered showers. Partly sunny.


Feels Like: 55 °F
Forecast: 67 / 89 °F
Wind: 12 mph from East

Location: Bogota / Eldorado

Current Time: Aug 30, 2015 at 9:16:13 AM

Latest Report: Aug 30, 2015 at 8:00 AM


Visibility: N/A

Pressure: 30.38 "Hg

Humidity: 72%

Dew point: 48 °F

Location of VillavicencioLocation

Historic Weather in Villavicencio — Graph

°F

Villavicencio temperature yesterday

Maximum temperature yesterday: 68 °F (at 3:00 PM)
Minimum temperature yesterday: 50 °F (at 5:00 AM)
Average temperature yesterday: 58 °F

Past Weeks' High & Low Weather Summary

 TemperatureHumidityPressure
High84 °F (Aug 18, 6:00 PM)100% (Aug 16, 6:00 AM)30.43 "Hg (Aug 16, 6:00 AM)
Low45 °F (Aug 30, 5:00 AM)37% (Aug 29, 4:00 PM)29.93 "Hg (Aug 18, 6:00 PM)
Average58 °F72%30.33 "Hg
* Reported Aug 15 8:00 AM — Aug 30 8:00 AM, Villavicencio, Weather by CustomWeather, © 2015

Note: Actual official high and low records may vary slightly from our data, if they occured in-between our weather recording intervals... More about our weather records

Advertising

Villavicencio weather history for previous 24 hours

 ConditionsComfort  
Time TempWeatherWind HumidityBarometerVisibility
8:00 AM
Sun, Aug 30
57 °FScattered showers. Partly sunny.12 mph72%30.38 "HgN/A
7:00 AM54 °FPartly sunny.12 mph82%30.35 "HgN/A
6:00 AM50 °FPartly sunny.3 mph88%30.33 "HgN/A
5:00 AM45 °FPassing clouds.8 mph87%30.30 "HgN/A
4:00 AM46 °FPassing clouds.2 mph87%30.30 "HgN/A
3:00 AM50 °FCool.3 mph82%30.32 "HgN/A
2:00 AM50 °FPassing clouds.7 mph94%30.34 "HgN/A
1:00 AM50 °FPassing clouds.2 mph88%30.34 "HgN/A
12:00 AM52 °FPassing clouds.2 mph82%30.36 "HgN/A
11:00 PM
Sat, Aug 29
54 °FPassing clouds.7 mph77%30.37 "HgN/A
10:00 PM55 °FPartly cloudy.7 mph72%30.39 "HgN/A
9:00 PM55 °FScattered showers. Partly cloudy.7 mph72%30.37 "HgN/A
8:00 PM57 °FPassing clouds.6 mph59%30.34 "HgN/A
7:00 PM59 °FPassing clouds.16 mph51%30.32 "HgN/A
6:00 PM61 °FScattered clouds.17 mph48%30.30 "HgN/A
5:00 PM63 °FScattered clouds.17 mph45%30.29 "HgN/A
4:00 PM66 °FScattered clouds.14 mph37%30.29 "HgN/A
3:00 PM68 °FScattered clouds.22 mph38%30.29 "HgN/A
2:00 PM66 °FScattered clouds.21 mph40%30.30 "HgN/A
1:00 PM66 °FPartly sunny.10 mph43%30.35 "HgN/A
12:00 PM64 °FPartly sunny.17 mph43%30.37 "HgN/A
11:00 AM63 °FPartly sunny.14 mph45%30.40 "HgN/A
10:00 AM63 °FScattered clouds.17 mph49%30.41 "HgN/A
9:00 AM59 °FScattered clouds.16 mph55%30.42 "HgN/A
Weather by CustomWeather, © 2015

See weather overviewHow to use our weather pages